| time (UTC) | temp F | wind direction | speed MPH | gust MPH | rain 1hr in | rain 24hr in | rain mn in | humidity % | barometer mb |
| 20260506104549 | 53 | 281 | 1.0 | 8.0 | 0.00 | 0.22 | 0.07 | 80 | 1010.3 |
| 20260506103101 | 53 | 280 | 2.0 | 11.0 | 0.00 | 0.22 | 0.07 | 80 | 1010.3 |
| 20260506101551 | 52 | 267 | 1.0 | 9.0 | 0.00 | 0.22 | 0.07 | 81 | 1010.2 |
| 20260506100056 | 52 | 311 | 1.0 | 6.0 | 0.00 | 0.22 | 0.07 | 83 | 1010.1 |
| 20260506094601 | 52 | 339 | 1.0 | 9.0 | 0.00 | 0.22 | 0.07 | 85 | 1010.0 |
| 20260506093047 | 51 | 282 | 1.0 | 5.0 | 0.00 | 0.22 | 0.07 | 87 | 1009.9 |
| 20260506091602 | 50 | 296 | 0.0 | 7.0 | 0.00 | 0.22 | 0.07 | 88 | 1009.9 |
| 20260506090057 | 49 | 283 | 1.0 | 5.0 | 0.00 | 0.22 | 0.07 | 91 | 1010.0 |
| 20260506084612 | 48 | 277 | 1.0 | 10.0 | 0.00 | 0.22 | 0.07 | 92 | 1009.9 |
| 20260506083054 | 48 | 271 | 0.0 | 7.0 | 0.00 | 0.22 | 0.07 | 93 | 1009.8 |
| 20260506081550 | 47 | 288 | 0.0 | 2.0 | 0.00 | 0.22 | 0.07 | 94 | 1009.7 |
| 20260506073101 | 47 | 284 | 1.0 | 5.0 | 0.00 | 0.22 | 0.07 | 94 | 1009.1 |
| 20260506071557 | 47 | 277 | 1.0 | 5.0 | 0.00 | 0.22 | 0.07 | 95 | 1009.1 |
| 20260506061559 | 47 | 268 | 1.0 | 4.0 | 0.00 | 0.22 | 0.07 | 95 | 1008.7 |
| 20260506050109 | 47 | 215 | 1.0 | 9.0 | 0.00 | 0.22 | 0.06 | 95 | 1007.7 |
| 20260506044556 | 47 | 285 | 2.0 | 4.0 | 0.00 | 0.22 | 0.06 | 95 | 1007.7 |
| 20260506043100 | 48 | 311 | 0.0 | 4.0 | 0.00 | 0.22 | 0.06 | 95 | 1007.7 |
| 20260506041552 | 48 | 270 | 1.0 | 5.0 | 0.00 | 0.22 | 0.06 | 95 | 1007.7 |
| 20260506040105 | 48 | 284 | 1.0 | 7.0 | 0.00 | 0.22 | 0.06 | 95 | 1007.7 |
| 20260506034601 | 48 | 0 | 1.0 | 5.0 | 0.00 | 0.22 | 0.06 | 95 | 1007.7 |
| 20260506033050 | 48 | 269 | 1.0 | 9.0 | 0.01 | 0.22 | 0.06 | 95 | 1007.7 |
| 20260506031554 | 48 | 286 | 1.0 | 7.0 | 0.00 | 0.21 | 0.05 | 95 | 1007.7 |
| 20260506030056 | 48 | 284 | 1.0 | 7.0 | 0.00 | 0.21 | 0.05 | 95 | 1007.7 |
| 20260506024557 | 49 | 268 | 1.0 | 4.0 | 0.00 | 0.21 | 0.05 | 95 | 1007.8 |
| 20260506023050 | 49 | 276 | 1.0 | 8.0 | 0.00 | 0.20 | 0.04 | 95 | 1007.9 |
| 20260506021602 | 49 | 292 | 1.0 | 4.0 | 0.00 | 0.20 | 0.04 | 95 | 1007.9 |
| 20260506020055 | 49 | 292 | 1.0 | 6.0 | 0.00 | 0.20 | 0.04 | 95 | 1007.8 |
| 20260506014554 | 49 | 0 | 1.0 | 8.0 | 0.00 | 0.20 | 0.04 | 95 | 1007.7 |
| 20260506013057 | 49 | 265 | 1.0 | 5.0 | 0.01 | 0.20 | 0.04 | 95 | 1007.8 |
| 20260506011604 | 49 | 281 | 1.0 | 7.0 | 0.01 | 0.20 | 0.04 | 94 | 1007.7 |
| 20260506010050 | 50 | 302 | 0.0 | 3.0 | 0.01 | 0.19 | 0.03 | 95 | 1007.8 |
| 20260506004553 | 50 | 281 | 1.0 | 7.0 | 0.02 | 0.19 | 0.03 | 95 | 1007.8 |
| 20260506003050 | 50 | 282 | 1.0 | 6.0 | 0.01 | 0.18 | 0.03 | 95 | 1007.8 |
| 20260506001552 | 50 | 236 | 1.0 | 4.0 | 0.02 | 0.18 | 0.03 | 94 | 1007.9 |
| 20260506000049 | 50 | 249 | 1.0 | 7.0 | 0.01 | 0.18 | 0.02 | 95 | 1007.9 |
| 20260505234602 | 51 | 290 | 1.0 | 4.0 | 0.00 | 0.17 | 0.01 | 95 | 1007.8 |
| 20260505233049 | 50 | 283 | 0.0 | 4.0 | 0.00 | 0.17 | 0.01 | 95 | 1007.8 |
| 20260505231605 | 50 | 283 | 0.0 | 8.0 | 0.00 | 0.16 | 0.00 | 95 | 1008.0 |
| 20260505230055 | 50 | 281 | 2.0 | 8.0 | 0.00 | 0.16 | 0.00 | 94 | 1008.0 |
| 20260505224554 | 50 | 296 | 1.0 | 8.0 | 0.00 | 0.16 | 0.00 | 94 | 1008.0 |
| 20260505223103 | 51 | 303 | 2.0 | 6.0 | 0.01 | 0.16 | 0.00 | 94 | 1008.0 |
| 20260505221557 | 51 | 269 | 1.0 | 8.0 | 0.02 | 0.16 | 0.00 | 94 | 1008.0 |
| 20260505220053 | 52 | 329 | 1.0 | 4.0 | 0.03 | 0.15 | 0.00 | 94 | 1008.0 |
| 20260505214612 | 52 | 297 | 1.0 | 6.0 | 0.04 | 0.15 | 0.15 | 95 | 1008.1 |
| 20260505213057 | 52 | 312 | 1.0 | 2.0 | 0.03 | 0.14 | 0.14 | 94 | 1008.1 |
| 20260505211549 | 52 | 0 | 0.0 | 4.0 | 0.03 | 0.14 | 0.14 | 94 | 1008.1 |
| 20260505210047 | 52 | 0 | 1.0 | 9.0 | 0.02 | 0.12 | 0.12 | 94 | 1008.2 |
| 20260505204547 | 52 | 271 | 0.0 | 3.0 | 0.00 | 0.11 | 0.11 | 94 | 1008.1 |
| 20260505203052 | 52 | 267 | 0.0 | 2.0 | 0.00 | 0.11 | 0.11 | 94 | 1008.1 |
| 20260505201554 | 52 | 0 | 0.0 | 4.0 | 0.00 | 0.11 | 0.11 | 94 | 1008.0 |
| 20260505200058 | 52 | 0 | 0.0 | 6.0 | 0.00 | 0.10 | 0.10 | 94 | 1007.9 |
| 20260505194549 | 52 | 298 | 0.0 | 3.0 | 0.00 | 0.10 | 0.10 | 94 | 1007.7 |
| 20260505193056 | 52 | 345 | 0.0 | 3.0 | 0.00 | 0.10 | 0.10 | 94 | 1007.6 |
| 20260505191548 | 52 | 281 | 0.0 | 3.0 | 0.00 | 0.10 | 0.10 | 94 | 1007.5 |
| 20260505190059 | 52 | 0 | 0.0 | 6.0 | 0.00 | 0.10 | 0.10 | 94 | 1007.5 |
| 20260505184602 | 52 | 0 | 1.0 | 3.0 | 0.00 | 0.10 | 0.10 | 94 | 1007.4 |
| 20260505183106 | 52 | 279 | 0.0 | 6.0 | 0.00 | 0.10 | 0.10 | 94 | 1007.2 |
| 20260505181555 | 53 | 300 | 0.0 | 4.0 | 0.00 | 0.10 | 0.10 | 94 | 1007.0 |
| 20260505180058 | 53 | 301 | 1.0 | 5.0 | 0.00 | 0.10 | 0.10 | 94 | 1007.1 |
| 20260505174558 | 53 | 15 | 0.0 | 9.0 | 0.00 | 0.10 | 0.10 | 94 | 1007.2 |
| 20260505173058 | 53 | 307 | 1.0 | 6.0 | 0.00 | 0.10 | 0.10 | 94 | 1007.0 |
| 20260505171551 | 53 | 0 | 1.0 | 5.0 | 0.00 | 0.10 | 0.10 | 94 | 1007.2 |
| 20260505170052 | 53 | 263 | 1.0 | 5.0 | 0.00 | 0.10 | 0.10 | 94 | 1007.3 |
| 20260505164601 | 53 | 286 | 1.0 | 5.0 | 0.00 | 0.11 | 0.10 | 94 | 1007.2 |
| 20260505163107 | 53 | 282 | 0.0 | 6.0 | 0.00 | 0.10 | 0.09 | 94 | 1007.1 |
| 20260505161550 | 53 | 319 | 2.0 | 6.0 | 0.00 | 0.10 | 0.09 | 93 | 1007.2 |
| 20260505153059 | 54 | 284 | 1.0 | 5.0 | 0.03 | 0.13 | 0.09 | 93 | 1007.2 |
| 20260505151556 | 54 | 277 | 1.0 | 9.0 | 0.04 | 0.12 | 0.08 | 93 | 1007.2 |
| 20260505140111 | 55 | 0 | 1.0 | 5.0 | 0.02 | 0.07 | 0.02 | 93 | 1007.2 |
| 20260505124602 | 56 | 17 | 1.0 | 8.0 | 0.00 | 0.05 | 0.00 | 90 | 1007.2 |
| 20260505123056 | 56 | 292 | 1.0 | 4.0 | 0.00 | 0.05 | 0.00 | 90 | 1007.2 |
| 20260505121559 | 56 | 338 | 1.0 | 8.0 | 0.00 | 0.05 | 0.00 | 89 | 1007.3 |
| 20260505120056 | 57 | 307 | 1.0 | 6.0 | 0.00 | 0.05 | 0.00 | 88 | 1007.4 |
| 20260505114602 | 57 | 299 | 1.0 | 5.0 | 0.00 | 0.06 | 0.00 | 86 | 1007.6 |
| 20260505113107 | 58 | 331 | 3.0 | 11.0 | 0.00 | 0.06 | 0.00 | 85 | 1007.6 |
| 20260505111552 | 58 | 342 | 1.0 | 10.0 | 0.00 | 0.06 | 0.00 | 86 | 1007.7 |